This is the latest recevied weather packets stored in our database for station/object OE6ATD-13. If no packets are shown the sender has not sent any weather packets the latest 10 day(s).
| Time | Temp. | Humidity | Pressure | Rain* | Wind** | Luminosity | Snow |
|---|---|---|---|---|---|---|---|
| 1788420017 | 20.56° C | 80% | 1021.4 hPa | 0 mm | - | 212 W/m² | - |
| 1788419428 | 20° C | 83% | 1021.6 hPa | 0 mm | - | 262 W/m² | - |
| 1788418824 | 19.44° C | 85% | 1021.5 hPa | 0 mm | - | 155 W/m² | - |
| 1788418219 | 18.89° C | 86% | 1021.4 hPa | 0 mm | - | 136 W/m² | - |
| 1788417615 | 18.33° C | 90% | 1021.4 hPa | 0 mm | - | 164 W/m² | - |
| 1788417026 | 17.78° C | 93% | 1021.4 hPa | 0 mm | - | 189 W/m² | - |
| 1788416422 | 17.78° C | 95% | 1021.3 hPa | 0 mm | - | 125 W/m² | - |
| 1788415818 | 17.22° C | 96% | 1021.3 hPa | 0 mm | - | 89 W/m² | - |
| 1788415228 | 17.22° C | 98% | 1021.3 hPa | 0 mm | - | 90 W/m² | - |
| 1788414624 | 17.22° C | 99% | 1021.2 hPa | 0 mm | - | 69 W/m² | - |
| 1788414020 | 16.67° C | 99% | 1021.1 hPa | 0 mm | - | 52 W/m² | - |
| 1788413416 | 17.22° C | 99% | 1021 hPa | 0 mm | - | 44 W/m² | - |
| 1788412827 | 17.78° C | 99% | 1020.9 hPa | 0 mm | - | 36 W/m² | - |
| 1788412223 | 17.78° C | 99% | 1020.9 hPa | 0 mm | - | 62 W/m² | - |
| 1788411619 | 16.67° C | 99% | 1020.7 hPa | 0 mm | - | 49 W/m² | - |
| 1788411030 | 15.56° C | 99% | 1020.8 hPa | 0 mm | - | 31 W/m² | - |
| 1788410425 | 15° C | 99% | 1020.6 hPa | 0 mm | - | 11 W/m² | - |
| 1788409821 | 15° C | 99% | 1020.5 hPa | 0 mm | - | 4 W/m² | - |
| 1788409217 | 15.56° C | 99% | 1020.4 hPa | 0 mm | - | 0 W/m² | - |
| 1788408628 | 15.56° C | 99% | 1020.4 hPa | 0 mm | - | 0 W/m² | - |
| 1788408023 | 15.56° C | 99% | 1020.4 hPa | 0 mm | - | 0 W/m² | - |
| 1788407420 | 16.11° C | 99% | 1020.3 hPa | 0 mm | - | 0 W/m² | - |
| 1788406816 | 16.11° C | 99% | 1020.3 hPa | 0 mm | - | 0 W/m² | - |
| 1788406227 | 16.11° C | 99% | 1020.3 hPa | 0 mm | - | 0 W/m² | - |
| 1788405622 | 16.11° C | 99% | 1020.2 hPa | 0 mm | - | 0 W/m² | - |
* Rain latest hour (hover to see other rain measurements)
** Current wind speed in m/s (hover to see current wind gust speed)